User: anonymous   Login
Location: Casco Millpond
(44.5581°N, 87.6111°W)
Time: 22:37:43
(UTC+00:00)
Language:

BREEZE-M DEB (TANK) - Orbit

View from above orbital plane
View from above orbital plane
View from above satellite
View from above satellite

Ground track
Ground track

The orbit is defined by the following mean orbital elements,

1 39010U          26068.76726498 +.00000000 +00000-0 +94811-3 0 00003
2 39010  49.6461 257.3963 4585662  60.6097 337.4486  6.31444667    00
Epoch (UTC): 09 March 2026 18:24:51
Eccentricity: 0.4585662
inclination: 49.6461°
perigee height: 316 km
apogee height: 11656 km
right ascension of ascending node: 257.3963°
argument of perigee: 60.6097°
revolutions per day: 6.31444667
mean anomaly at epoch: 337.4486°

The dashed part of the orbit path shows where the satellite is in the earth's shadow,  

DLR